Home   Weather   Norwich   Past weeks

Flag for United Kingdom Past Weather in Norwich, England, United Kingdom — Yesterday and Last 2 Weeks

Now
52 °F

Light rain. Passing clouds.


Feels Like: 52 °F
Forecast: 48 / 60 °F
Wind: 2 mph from North

Location: Norwich Weather Centre

Current Time: Oct 1, 2016 at 9:56:06 AM

Latest Report: Oct 1, 2016 at 8:50 AM


Visibility: 6 mi

Pressure: 29.71 "Hg

Humidity: 100%

Dew Point: 52 °F

Location of NorwichLocation

Past Weather in Norwich — Graph

°F

Norwich Temperature Yesterday

Maximum temperature yesterday: 63 °F (at 12:20 PM)
Minimum temperature yesterday: 48 °F (at 6:50 AM)
Average temperature yesterday: 55 °F

High & Low Weather Summary for the Past Weeks

 TemperatureHumidityPressure
High72 °F (Sep 24, 12:50 PM)100% (Sep 16, 8:50 AM)30.24 "Hg (Sep 16, 8:50 AM)
Low45 °F (Sep 23, 5:20 AM)49% (Sep 29, 2:20 PM)29.71 "Hg (Oct 1, 7:50 AM)
Average59 °F86%30.05 "Hg
* Reported Sep 16 8:20 AM — Oct 1 8:20 AM, Norwich, Weather by CustomWeather, © 2016

Note: Actual official high and low records may vary slightly from our data, if they occured in-between our weather recording intervals... More about our weather records

Advertising

Norwich Weather History for the Previous 24 Hours

Scroll right to see more
 ConditionsComfort  
Time TempWeatherWind HumidityBarometerVisibility
8:20 AM
Sat, Oct 1
52 °FLight rain. Scattered clouds.3 mph100%29.71 "Hg6 mi
7:50 AM50 °FLight rain. Scattered clouds.5 mph100%29.71 "Hg6 mi
7:20 AM50 °FLight rain. Passing clouds.2 mph100%29.74 "Hg6 mi
6:50 AM50 °FLight rain. Passing clouds.2 mph100%29.74 "Hg6 mi
6:20 AM50 °FRain. Passing clouds.2 mph94%29.74 "HgN/A
5:50 AM48 °FRain. Passing clouds.5 mph100%29.74 "HgN/A
5:20 AM48 °FRain. Overcast.2 mph100%29.74 "Hg1 mi
4:50 AM48 °FFog.2 mph100%29.74 "Hg1 mi
4:20 AM48 °FCool.1 mph94%29.74 "HgN/A
3:50 AM48 °FCool.5 mph94%29.74 "HgN/A
3:20 AM46 °FCool.5 mph100%29.77 "HgN/A
2:50 AM48 °FCool.5 mph94%29.77 "HgN/A
2:20 AM48 °FCool.5 mph94%29.77 "HgN/A
1:50 AM50 °FCool.3 mph88%29.77 "HgN/A
1:20 AM50 °FCool.3 mph88%29.80 "HgN/A
12:50 AM50 °FCool.5 mph94%29.80 "HgN/A
12:20 AM52 °FCool.3 mph88%29.80 "HgN/A
11:50 PM
Fri, Sep 30
52 °FCool.5 mph88%29.80 "HgN/A
11:20 PM54 °FPassing clouds.6 mph82%29.83 "HgN/A
10:50 PM50 °FPassing clouds.7 mph94%29.83 "HgN/A
10:20 PM50 °FCool.6 mph88%29.83 "HgN/A
9:50 PM50 °FCool.6 mph88%29.83 "HgN/A
9:20 PM50 °FPassing clouds.5 mph88%29.83 "HgN/A
8:50 PM54 °FClear.5 mph82%29.83 "Hg10 mi
8:20 PM54 °FClear.3 mph82%29.83 "Hg10 mi
7:50 PM54 °FPassing clouds.3 mph82%29.83 "HgN/A
7:20 PM55 °FPassing clouds.5 mph77%29.83 "HgN/A
6:50 PM54 °FPassing clouds.6 mph82%29.83 "HgN/A
6:20 PM57 °FPassing clouds.6 mph72%29.83 "HgN/A
5:50 PM61 °FPassing clouds.6 mph68%29.83 "HgN/A
5:20 PM61 °FScattered clouds.8 mph72%29.83 "HgN/A
4:50 PM61 °FScattered clouds.8 mph72%29.83 "HgN/A
4:20 PM61 °FScattered clouds.10 mph72%29.83 "HgN/A
3:50 PM63 °FPassing clouds.10 mph59%29.83 "HgN/A
3:20 PM61 °FScattered clouds.13 mph63%29.83 "HgN/A
2:50 PM63 °FPassing clouds.13 mph59%29.83 "HgN/A
2:20 PM63 °FPassing clouds.16 mph59%29.83 "HgN/A
1:50 PM63 °FPassing clouds.16 mph59%29.86 "HgN/A
1:20 PM61 °FSprinkles. Scattered clouds.14 mph63%29.86 "HgN/A
12:50 PM61 °FPartly sunny.15 mph63%29.86 "HgN/A
12:20 PM63 °FScattered clouds.15 mph59%29.86 "HgN/A
11:50 AM61 °FScattered clouds.14 mph68%29.86 "HgN/A
11:20 AM61 °FPassing clouds.15 mph63%29.86 "HgN/A
10:50 AM59 °FPassing clouds.15 mph72%29.89 "HgN/A
9:50 AM57 °FSunny.10 mph82%29.89 "Hg10 mi
9:20 AM55 °FPassing clouds.9 mph88%29.89 "HgN/A
Weather by CustomWeather, © 2016

See weather overviewHow to use our weather pages